St. Cloud, MN

11:30 AM CDT on June 25, 2018 (GMT -0500)
Saint Cloud Regional

Weather History for KSTC - October, 2017

Change the Weather History Date:

Thursday, October 12, 2017

  Actual Average Record
Temperature  
Mean Temperature 57 °F 47 °F  
Max Temperature 64 °F 59 °F 84 °F (1995)
Min Temperature 50 °F 36 °F 18 °F (2012)
Degree Days  
Heating Degree Days 8 18  
Month to date heating degree days 168 187  
Since 1 July heating degree days 347 473  
Cooling Degree Days 0 0  
Month to date cooling degree days 0 0  
Year to date cooling degree days 361 463  
Growing Degree Days 6 (Base 50)    
Moisture  
Dew Point 50 °F    
Average Humidity 78    
Maximum Humidity 96    
Minimum Humidity 60    
Precipitation  
Precipitation 0.00 in 0.09 in 1.15 in (1898)
Month to date precipitation 3.63 1.12  
Year to date precipitation 27.49 24.16  
Snow  
Snow 0.00 in 0.00 in 3.60 in (1969)
Month to date snowfall 0.0 0.1  
Since 1 July snowfall 0.0 0.1  
Since 1 September snowfall 0.0 0.1  
Snow Depth 0.00 in    
Sea Level Pressure  
Sea Level Pressure 30.03 in    
Wind  
Wind Speed 13 mph (SSE)    
Max Wind Speed 24 mph    
Max Gust Speed 30 mph    
Visibility 10 miles    
Events      
T = Trace of Precipitation, MM = Missing Value Source: NWS Daily Summary

Daily Weather History Graph

Daily Weather History Graph

Search for Another Location

Airport or City:

Astronomy

Oct. 12, 2017 Rise Set
Actual Time 7:29 AM CDT 6:35 PM CDT
Civil Twilight 6:59 AM CDT 7:05 PM CDT
Nautical Twilight 6:24 AM CDT 7:39 PM CDT
Astronomical Twilight 5:50 AM CDT 8:13 PM CDT
Moon No Moon Rise 2:50 PM CDT (10/12)
Length of Visible Light 12h 06m
Length of Day
11h 06m
Waning Gibbous, 48% of the Moon is Illuminated
Oct 12
Waning Gibbous
Oct 19
New
Oct 27
First Quarter
Nov 4
Full
Nov 10
Last Quarter

Hourly Weather History & Observations

Time (CDT) Temp. Dew Point Humidity Pressure Visibility Wind Dir Wind Speed Gust Speed Precip Events Conditions
12:08 AM 48.9 °F 46.9 °F 93% 30.11 in 10.0 mi SSE 10.4 mph - N/A   Overcast
12:53 AM 50.0 °F 48.0 °F 93% 30.15 in 10.0 mi SSE 8.1 mph - N/A   Overcast
1:43 AM 52.0 °F 50.0 °F 93% 30.11 in 10.0 mi SSE 10.4 mph - N/A   Overcast
1:53 AM 52.0 °F 50.0 °F 93% 30.14 in 10.0 mi SSE 12.7 mph - N/A   Overcast
2:29 AM 52.0 °F 50.0 °F 93% 30.11 in 10.0 mi SSE 10.4 mph - N/A   Overcast
2:53 AM 52.0 °F 50.0 °F 93% 30.14 in 10.0 mi SSE 11.5 mph - N/A   Overcast
3:53 AM 52.0 °F 50.0 °F 93% 30.12 in 10.0 mi SSE 12.7 mph - N/A   Overcast
4:42 AM 52.0 °F 50.0 °F 93% 30.08 in 10.0 mi SSE 12.7 mph - N/A   Overcast
4:53 AM 52.0 °F 50.0 °F 93% 30.12 in 10.0 mi SSE 12.7 mph - N/A   Overcast
5:26 AM 52.0 °F 50.0 °F 93% 30.08 in 10.0 mi SSE 10.4 mph - N/A   Overcast
5:53 AM 52.0 °F 50.0 °F 93% 30.11 in 10.0 mi SSE 12.7 mph - N/A   Overcast
6:53 AM 52.0 °F 48.9 °F 89% 30.09 in 10.0 mi South 16.1 mph - N/A   Overcast
7:29 AM 52.0 °F 50.0 °F 93% 30.06 in 10.0 mi South 11.5 mph - N/A   Overcast
7:53 AM 53.1 °F 50.0 °F 89% 30.09 in 10.0 mi South 15.0 mph - N/A   Overcast
8:34 AM 53.1 °F 50.0 °F 89% 30.05 in 10.0 mi South 10.4 mph - N/A   Overcast
8:53 AM 53.1 °F 50.0 °F 89% 30.09 in 10.0 mi South 12.7 mph - N/A   Overcast
9:53 AM 54.0 °F 50.0 °F 86% 30.09 in 10.0 mi South 13.8 mph - N/A   Overcast
10:53 AM 55.0 °F 50.0 °F 83% 30.06 in 10.0 mi South 17.3 mph 26.5 mph N/A   Overcast
11:53 AM 57.9 °F 50.0 °F 75% 30.05 in 10.0 mi SSE 19.6 mph 28.8 mph N/A   Mostly Cloudy
12:24 PM 60.1 °F 50.0 °F 69% 29.99 in 10.0 mi SSE 18.4 mph 24.2 mph N/A   Scattered Clouds
12:53 PM 61.0 °F 50.0 °F 67% 30.01 in 10.0 mi SSE 18.4 mph 25.3 mph N/A   Partly Cloudy
1:34 PM 62.1 °F 50.0 °F 65% 29.96 in 10.0 mi SSE 16.1 mph - N/A   Mostly Cloudy
1:53 PM 62.1 °F 50.0 °F 65% 29.98 in 10.0 mi South 18.4 mph 26.5 mph N/A   Mostly Cloudy
2:00 PM 62.1 °F 50.0 °F 65% 29.94 in 10.0 mi SSE 19.6 mph - N/A   Mostly Cloudy
2:15 PM 62.1 °F 50.0 °F 65% 29.94 in 10.0 mi SSE 21.9 mph 29.9 mph N/A   Scattered Clouds
2:53 PM 63.0 °F 48.9 °F 60% 29.94 in 10.0 mi South 18.4 mph 27.6 mph N/A   Scattered Clouds
3:53 PM 63.0 °F 50.0 °F 63% 29.91 in 10.0 mi SSE 18.4 mph 25.3 mph N/A   Clear
4:53 PM 63.0 °F 50.0 °F 63% 29.90 in 10.0 mi SSE 19.6 mph 26.5 mph N/A   Clear
5:53 PM 62.1 °F 50.0 °F 65% 29.90 in 10.0 mi SSE 16.1 mph 26.5 mph N/A   Clear
6:53 PM 57.0 °F 50.0 °F 77% 29.91 in 10.0 mi SSE 8.1 mph - N/A   Clear
7:53 PM 57.0 °F 51.1 °F 81% 29.93 in 10.0 mi South 9.2 mph - N/A   Clear
8:53 PM 54.0 °F 50.0 °F 86% 29.96 in 10.0 mi South 5.8 mph - N/A   Clear
9:53 PM 52.0 °F 50.0 °F 93% 29.95 in 10.0 mi SSE 8.1 mph - N/A   Clear
10:53 PM 54.0 °F 50.0 °F 86% 29.96 in 10.0 mi South 8.1 mph - N/A   Clear
11:53 PM 53.1 °F 48.9 °F 86% 29.98 in 10.0 mi SSW 8.1 mph - N/A   Clear